Find Starlink 11592

NORAD ID: 63560 Int'l Des: 2025-075 Owner: SPXS Country: US Constellation: starlink operational
LEOCIRCULAR

Live Position

Loading 3D Globe...

About Starlink 11592

Description loading...

Upcoming Passes

Passes for default location (London). Set your location on the main map for personalized predictions.

Altitude History

Loading altitude history...

Two-Line Element Set

1 63560U 25075N 26124.22022894 .00214128 00000-0 16264-2 0 9992
2 63560 42.9985 178.9413 0002382 281.9693 78.0907 15.70886073 61985
Epoch: May 4, 2026 • Age: 6 hours

Current Status

Altitude 356.3 km
Velocity 7.70 km/s
Sub-Earth Point -6.64°S, 137.7°E
Launch Date Apr 13, 2025
Age 1 years
Type internet

Technical Details

Classification Payload
Mass 960.00 kg
Dry Mass 910.00 kg
Total Mass 960.00 kg
Length 0.30 m
Diameter 4.10 m
Span 29.00 m
Shape Box + pan
Manufacturer SPXS
Bus Type Starlink V2MD
Phase Status In Orbit
Owner/State SPXS/US

Most Searched